Skip Page Navigation
NASA JPL Caltech
NASA Logo - Jet Propulsion Laboratory + View the NASA Portal
+ Center for Near-Earth Object Studies
JPL Home Earth Solar System Stars & Galaxies Technology
JPL Solar System Dynamics
BODIES ORBITS EPHEMERIDES TOOLS PHYSICAL DATA DISCOVERY FAQ SITE MAP
JPL Small-Body Database Browser
Search: [ help ]  
52216 (5014 T-3)
Classification: Main-belt Asteroid          SPK-ID: 2052216
Ephemeris | Orbit Diagram | Orbital Elements | Mission Design | Physical Parameters | Discovery Circumstances ]

[ show orbit diagram ]
Orbital Elements at Epoch 2459396.5 (2021-Jul-01.0) TDB
Reference: JPL 34 (heliocentric ecliptic J2000)
 Element Value Uncertainty (1-sigma)   Units 
e .05956045810598601 3.75e-08  
a 2.31134490032197 8.0434e-09 au
q 2.17368013921786 8.6978e-08 au
i 6.643034417105236 3.8322e-06 deg
node 112.4658600369895 4.3266e-05 deg
peri 303.7588380218783 6.1302e-05 deg
M 124.7048532527843 4.2538e-05 deg
tp 2458951.892877455422
(2020-Apr-12.39287746)
0.00015174 TDB
period 1283.499077550734
3.51
6.6998e-06
1.834e-08
d
yr
n .2804832557316506 1.4641e-09 deg/d
Q 2.449009661426082 8.5225e-09 au
  Orbit Determination Parameters
   # obs. used (total)      1653  
   data-arc span      15970 days (43.72 yr)  
   first obs. used      1977-10-11  
   last obs. used      2021-07-02  
   planetary ephem.      DE441  
   SB-pert. ephem.      SB441-N16  
   condition code      0  
   norm. resid. RMS      .50927  
   source      ORB  
   producer      Otto Matic  
   solution date      2021-Jul-08 21:52:48  

Additional Information
 Earth MOID = 1.19374 au 
 Jupiter MOID = 2.72513 au 
 T_jup = 3.573 
[ hide covariance matrix ]
Orbital Elements at Epoch 2457232.5 (2015-Jul-29.0) TDB
Reference: JPL 34 (heliocentric ecliptic J2000)
 Element Value Uncertainty (1-sigma)   Units 
e .05937556976055993 3.7818e-08  
q 2.174187775439134 8.7724e-08 au
tp 2457664.790863452988
(2016-Oct-03.29086345)
0.00015215 TDB
node 112.5260124901071 4.3304e-05 deg
peri 302.7849000445212 6.1301e-05 deg
i 6.640318268506959 3.8308e-06 deg
  Orbit Determination Parameters
   # obs. used (total)      1653  
   data-arc span      15970 days (43.72 yr)  
   first obs. used      1977-10-11  
   last obs. used      2021-07-02  
   planetary ephem.      DE441  
   SB-pert. ephem.      SB441-N16  
   condition code      0  
   norm. resid. RMS      .50927  
   source      ORB  
   producer      Otto Matic  
   solution date      2021-Jul-08 21:52:48  

Additional Information
 Jupiter MOID = 2.72513 au 
 T_jup = 3.573 
Orbit Covariance (6×6)
  e q tp node peri i
e 1.430200633740701E-15 -3.305306273357803E-15 -2.222113543251388E-12 1.904316027695779E-14 -6.651733319035287E-13 6.384470494980095E-16
q -3.305306273357803E-15 7.695412865373423E-15 5.055213660282348E-12 -4.423258070395066E-14 1.509733115993615E-12 -1.293284282609808E-15
tp -2.222113543251388E-12 5.055213660282348E-12 2.314854122117833E-8 -5.716137482420829E-11 6.62844059340221E-9 -7.672757117469256E-13
node 1.904316027695779E-14 -4.423258070395066E-14 -5.716137482420829E-11 1.875265001114699E-9 -1.878742940561435E-9 4.180881781710987E-11
peri -6.651733319035287E-13 1.509733115993615E-12 6.62844059340221E-9 -1.878742940561435E-9 3.757760419185333E-9 -4.182878557160802E-11
i 6.384470494980095E-16 -1.293284282609808E-15 -7.672757117469256E-13 4.180881781710987E-11 -4.182878557160802E-11 1.467513582143386E-11

Ephemeris | Orbit Diagram | Orbital Elements | Mission Design | Physical Parameters | Discovery Circumstances ]

Physical Parameter Table
Parameter Symbol Value Units Sigma Reference Notes
absolute magnitude H 14.78   n/a MPCxxxxx  
diameter diameter 2.196 km 0.546 urn:nasa:pds:neowise_diameters_albedos::2.0[mainbelt] (http://adsabs.harvard.edu/abs/2011ApJ...741...68M)  
geometric albedo albedo 0.334   0.266 urn:nasa:pds:neowise_diameters_albedos::2.0[mainbelt] (http://adsabs.harvard.edu/abs/2011ApJ...741...68M)  

52216 (5014 T-3)          Discovered 1977-Oct-16 by van Houten, C. J., van Houten-Groeneveld, I., Gehrels, T. at Palomar
Reference: 20021120/Numbers.arcLast Updated: 2004-04-19

Alternate Designations
 5014 T-3 = 2000 CM88 
Ephemeris | Orbit Diagram | Orbital Elements | Mission Design | Physical Parameters | Discovery Circumstances ]
ABOUT SSD CREDITS/AWARDS PRIVACY/COPYRIGHT GLOSSARY LINKS
FirstGov 2021-Jul-25 03:35 UT
(server date/time)  
NASA Home Page
Site Manager:   Ryan S. Park
Webmaster  Alan B. Chamberlin